owner,sensor,date,latitude,longitude,air_temperature,qcFlag 
WAVCIS,ioos:station:WAVCIS:CSI15:1,2009-09-01T00:00:00Z,28.8332,-90.8320,32.16,11111222 
WAVCIS,ioos:station:WAVCIS:CSI15:1,2009-09-01T01:00:00Z,28.8332,-90.8320,42.92,11133222 
WAVCIS,ioos:station:WAVCIS:CSI15:1,2009-09-01T02:00:00Z,28.8332,-90.8320,42.84,11133222 
WAVCIS,ioos:station:WAVCIS:CSI15:1,2009-09-01T03:00:00Z,28.8332,-90.8320,32.47,11111222 
WAVCIS,ioos:station:WAVCIS:CSI15:1,2009-09-01T04:00:00Z,28.8332,-90.8320,32.46,11111222 
WAVCIS,ioos:station:WAVCIS:CSI15:1,2009-09-01T05:00:00Z,28.8332,-90.8320,32.58,11111222 
WAVCIS,ioos:station:WAVCIS:CSI15:1,2009-09-01T06:00:00Z,28.8332,-90.8320,32.69,11111222 
WAVCIS,ioos:station:WAVCIS:CSI15:1,2009-09-01T07:00:00Z,28.8332,-90.8320,32.21,11111222 
WAVCIS,ioos:station:WAVCIS:CSI15:1,2009-09-01T08:00:00Z,28.8332,-90.8320,31.94,11111222 
WAVCIS,ioos:station:WAVCIS:CSI15:1,2009-09-01T09:00:00Z,28.8332,-90.8320,32.43,11111222 
WAVCIS,ioos:station:WAVCIS:CSI15:1,2009-09-01T10:00:00Z,28.8332,-90.8320,31.61,11111222 
WAVCIS,ioos:station:WAVCIS:CSI15:1,2009-09-01T11:00:00Z,28.8332,-90.8320,31.63,11111222 
WAVCIS,ioos:station:WAVCIS:CSI15:1,2009-09-01T12:00:00Z,28.8332,-90.8320,31.45,11111222 
WAVCIS,ioos:station:WAVCIS:CSI15:1,2009-09-01T13:00:00Z,28.8332,-90.8320,31.65,11111222 
WAVCIS,ioos:station:WAVCIS:CSI15:1,2009-09-01T14:00:00Z,28.8332,-90.8320,31.8,11111222 
WAVCIS,ioos:station:WAVCIS:CSI15:1,2009-09-01T15:00:00Z,28.8332,-90.8320,32.09,11111222 
WAVCIS,ioos:station:WAVCIS:CSI15:1,2009-09-01T16:00:00Z,28.8332,-90.8320,32.35,11111222 
WAVCIS,ioos:station:WAVCIS:CSI15:1,2009-09-01T17:00:00Z,28.8332,-90.8320,33.18,11111222 
WAVCIS,ioos:station:WAVCIS:CSI15:1,2009-09-01T18:00:00Z,28.8332,-90.8320,32.48,11111222 
WAVCIS,ioos:station:WAVCIS:CSI15:1,2009-09-01T19:00:00Z,28.8332,-90.8320,33.32,11111222 
WAVCIS,ioos:station:WAVCIS:CSI15:1,2009-09-01T20:00:00Z,28.8332,-90.8320,33.25,11111222 
WAVCIS,ioos:station:WAVCIS:CSI15:1,2009-09-01T21:00:00Z,28.8332,-90.8320,33.52,11111222 
WAVCIS,ioos:station:WAVCIS:CSI15:1,2009-09-01T22:00:00Z,28.8332,-90.8320,33.67,11111222 
WAVCIS,ioos:station:WAVCIS:CSI15:1,2009-09-01T23:00:00Z,28.8332,-90.8320,33.76,11111222 
WAVCIS,ioos:station:WAVCIS:CSI15:1,2009-09-02T00:00:00Z,28.8332,-90.8320,33.16,11111222 
WAVCIS,ioos:station:WAVCIS:CSI15:1,2009-09-02T01:00:00Z,28.8332,-90.8320,33.4,11111222 
WAVCIS,ioos:station:WAVCIS:CSI15:1,2009-09-02T02:00:00Z,28.8332,-90.8320,35.03,11111222 
WAVCIS,ioos:station:WAVCIS:CSI15:1,2009-09-02T03:00:00Z,28.8332,-90.8320,33.34,11111222 
WAVCIS,ioos:station:WAVCIS:CSI15:1,2009-09-02T04:00:00Z,28.8332,-90.8320,32.78,11111222 
WAVCIS,ioos:station:WAVCIS:CSI15:1,2009-09-02T05:00:00Z,28.8332,-90.8320,32.68,11111222 
WAVCIS,ioos:station:WAVCIS:CSI15:1,2009-09-02T06:00:00Z,28.8332,-90.8320,32.06,11111222 
WAVCIS,ioos:station:WAVCIS:CSI15:1,2009-09-02T07:00:00Z,28.8332,-90.8320,32.5,11111222 
WAVCIS,ioos:station:WAVCIS:CSI15:1,2009-09-02T08:00:00Z,28.8332,-90.8320,31.51,11111222 
WAVCIS,ioos:station:WAVCIS:CSI15:1,2009-09-02T09:00:00Z,28.8332,-90.8320,31.93,11111222 
WAVCIS,ioos:station:WAVCIS:CSI15:1,2009-09-02T10:00:00Z,28.8332,-90.8320,32.0,11111222 
WAVCIS,ioos:station:WAVCIS:CSI15:1,2009-09-02T11:00:00Z,28.8332,-90.8320,31.3,11111222 
WAVCIS,ioos:station:WAVCIS:CSI15:1,2009-09-02T12:00:00Z,28.8332,-90.8320,31.67,11111222 
WAVCIS,ioos:station:WAVCIS:CSI15:1,2009-09-02T13:00:00Z,28.8332,-90.8320,32.47,11111222 
WAVCIS,ioos:station:WAVCIS:CSI15:1,2009-09-02T14:00:00Z,28.8332,-90.8320,32.86,11111222 
WAVCIS,ioos:station:WAVCIS:CSI15:1,2009-09-02T15:00:00Z,28.8332,-90.8320,32.06,11111222 
WAVCIS,ioos:station:WAVCIS:CSI15:1,2009-09-02T16:00:00Z,28.8332,-90.8320,32.69,11111222 
WAVCIS,ioos:station:WAVCIS:CSI15:1,2009-09-02T17:00:00Z,28.8332,-90.8320,34.86,11111222 
WAVCIS,ioos:station:WAVCIS:CSI15:1,2009-09-02T18:00:00Z,28.8332,-90.8320,34.27,11111222 
WAVCIS,ioos:station:WAVCIS:CSI15:1,2009-09-02T19:00:00Z,28.8332,-90.8320,34.88,11111222 
WAVCIS,ioos:station:WAVCIS:CSI15:1,2009-09-02T20:00:00Z,28.8332,-90.8320,35.66,11111222 
WAVCIS,ioos:station:WAVCIS:CSI15:1,2009-09-02T21:00:00Z,28.8332,-90.8320,38.65,11111222 
WAVCIS,ioos:station:WAVCIS:CSI15:1,2009-09-02T22:00:00Z,28.8332,-90.8320,38.17,11111222 
WAVCIS,ioos:station:WAVCIS:CSI15:1,2009-09-02T23:00:00Z,28.8332,-90.8320,39.22,11111222 
WAVCIS,ioos:station:WAVCIS:CSI15:1,2009-09-03T00:00:00Z,28.8332,-90.8320,37.9,11111222 
WAVCIS,ioos:station:WAVCIS:CSI15:1,2009-09-03T01:00:00Z,28.8332,-90.8320,37.45,11111222 
WAVCIS,ioos:station:WAVCIS:CSI15:1,2009-09-03T02:00:00Z,28.8332,-90.8320,38.62,11111222 
WAVCIS,ioos:station:WAVCIS:CSI15:1,2009-09-03T03:00:00Z,28.8332,-90.8320,37.11,11111222 
WAVCIS,ioos:station:WAVCIS:CSI15:1,2009-09-03T04:00:00Z,28.8332,-90.8320,37.62,11111222 
WAVCIS,ioos:station:WAVCIS:CSI15:1,2009-09-03T05:00:00Z,28.8332,-90.8320,36.45,11111222 
WAVCIS,ioos:station:WAVCIS:CSI15:1,2009-09-03T06:00:00Z,28.8332,-90.8320,37.05,11111222 
WAVCIS,ioos:station:WAVCIS:CSI15:1,2009-09-03T07:00:00Z,28.8332,-90.8320,36.78,11111222 
WAVCIS,ioos:station:WAVCIS:CSI15:1,2009-09-03T08:00:00Z,28.8332,-90.8320,36.26,11111222 
WAVCIS,ioos:station:WAVCIS:CSI15:1,2009-09-03T09:00:00Z,28.8332,-90.8320,37.28,11111222 
WAVCIS,ioos:station:WAVCIS:CSI15:1,2009-09-03T10:00:00Z,28.8332,-90.8320,35.89,11111222 
WAVCIS,ioos:station:WAVCIS:CSI15:1,2009-09-03T11:00:00Z,28.8332,-90.8320,36.02,11111222 
WAVCIS,ioos:station:WAVCIS:CSI15:1,2009-09-03T12:00:00Z,28.8332,-90.8320,37.1,11111222 
WAVCIS,ioos:station:WAVCIS:CSI15:1,2009-09-03T13:00:00Z,28.8332,-90.8320,34.48,11111222 
WAVCIS,ioos:station:WAVCIS:CSI15:1,2009-09-03T14:00:00Z,28.8332,-90.8320,36.12,11111222 
WAVCIS,ioos:station:WAVCIS:CSI15:1,2009-09-03T15:00:00Z,28.8332,-90.8320,29.49,11111222 
WAVCIS,ioos:station:WAVCIS:CSI15:1,2009-09-03T16:00:00Z,28.8332,-90.8320,29.31,11111222 
WAVCIS,ioos:station:WAVCIS:CSI15:1,2009-09-03T17:00:00Z,28.8332,-90.8320,29.47,11111222 
WAVCIS,ioos:station:WAVCIS:CSI15:1,2009-09-03T18:00:00Z,28.8332,-90.8320,30.06,11111222 
WAVCIS,ioos:station:WAVCIS:CSI15:1,2009-09-03T19:00:00Z,28.8332,-90.8320,30.51,11111222 
WAVCIS,ioos:station:WAVCIS:CSI15:1,2009-09-03T20:00:00Z,28.8332,-90.8320,31.17,11111222 
WAVCIS,ioos:station:WAVCIS:CSI15:1,2009-09-03T21:00:00Z,28.8332,-90.8320,31.65,11111222 
WAVCIS,ioos:station:WAVCIS:CSI15:1,2009-09-03T22:00:00Z,28.8332,-90.8320,32.13,11111222 
WAVCIS,ioos:station:WAVCIS:CSI15:1,2009-09-03T23:00:00Z,28.8332,-90.8320,32.6,11111222 
WAVCIS,ioos:station:WAVCIS:CSI15:1,2009-09-04T00:00:00Z,28.8332,-90.8320,32.37,11111222 
WAVCIS,ioos:station:WAVCIS:CSI15:1,2009-09-04T01:00:00Z,28.8332,-90.8320,31.77,11111222 
WAVCIS,ioos:station:WAVCIS:CSI15:1,2009-09-04T02:00:00Z,28.8332,-90.8320,31.58,11111222 
WAVCIS,ioos:station:WAVCIS:CSI15:1,2009-09-04T03:00:00Z,28.8332,-90.8320,31.69,11111222 
WAVCIS,ioos:station:WAVCIS:CSI15:1,2009-09-04T04:00:00Z,28.8332,-90.8320,31.49,11111222 
WAVCIS,ioos:station:WAVCIS:CSI15:1,2009-09-04T05:00:00Z,28.8332,-90.8320,31.45,11111222 
WAVCIS,ioos:station:WAVCIS:CSI15:1,2009-09-04T06:00:00Z,28.8332,-90.8320,31.22,11111222 
WAVCIS,ioos:station:WAVCIS:CSI15:1,2009-09-04T07:00:00Z,28.8332,-90.8320,31.05,11111222 
WAVCIS,ioos:station:WAVCIS:CSI15:1,2009-09-04T08:00:00Z,28.8332,-90.8320,31.2,11111222 
WAVCIS,ioos:station:WAVCIS:CSI15:1,2009-09-04T09:00:00Z,28.8332,-90.8320,31.23,11111222 
WAVCIS,ioos:station:WAVCIS:CSI15:1,2009-09-04T10:00:00Z,28.8332,-90.8320,30.19,11111222 
WAVCIS,ioos:station:WAVCIS:CSI15:1,2009-09-04T11:00:00Z,28.8332,-90.8320,30.37,11111222 
WAVCIS,ioos:station:WAVCIS:CSI15:1,2009-09-04T12:00:00Z,28.8332,-90.8320,30.55,11111222 
WAVCIS,ioos:station:WAVCIS:CSI15:1,2009-09-04T13:00:00Z,28.8332,-90.8320,31.26,11111222 
WAVCIS,ioos:station:WAVCIS:CSI15:1,2009-09-04T14:00:00Z,28.8332,-90.8320,32.58,11111222 
WAVCIS,ioos:station:WAVCIS:CSI15:1,2009-09-04T15:00:00Z,28.8332,-90.8320,36.49,11111222 
WAVCIS,ioos:station:WAVCIS:CSI15:1,2009-09-04T16:00:00Z,28.8332,-90.8320,36.99,11111222 
WAVCIS,ioos:station:WAVCIS:CSI15:1,2009-09-04T17:00:00Z,28.8332,-90.8320,36.98,11111222 
WAVCIS,ioos:station:WAVCIS:CSI15:1,2009-09-04T18:00:00Z,28.8332,-90.8320,36.85,11111222 
WAVCIS,ioos:station:WAVCIS:CSI15:1,2009-09-04T19:00:00Z,28.8332,-90.8320,37.59,11111222 
WAVCIS,ioos:station:WAVCIS:CSI15:1,2009-09-04T20:00:00Z,28.8332,-90.8320,38.22,11111222 
WAVCIS,ioos:station:WAVCIS:CSI15:1,2009-09-04T21:00:00Z,28.8332,-90.8320,37.84,11111222 
WAVCIS,ioos:station:WAVCIS:CSI15:1,2009-09-04T22:00:00Z,28.8332,-90.8320,37.96,11111222 
WAVCIS,ioos:station:WAVCIS:CSI15:1,2009-09-04T23:00:00Z,28.8332,-90.8320,38.17,11111222 
WAVCIS,ioos:station:WAVCIS:CSI15:1,2009-09-05T00:00:00Z,28.8332,-90.8320,37.91,11111222 
WAVCIS,ioos:station:WAVCIS:CSI15:1,2009-09-05T01:00:00Z,28.8332,-90.8320,33.5,11111222 
WAVCIS,ioos:station:WAVCIS:CSI15:1,2009-09-05T02:00:00Z,28.8332,-90.8320,32.68,11111222 
WAVCIS,ioos:station:WAVCIS:CSI15:1,2009-09-05T03:00:00Z,28.8332,-90.8320,34.18,11111222 
WAVCIS,ioos:station:WAVCIS:CSI15:1,2009-09-05T04:00:00Z,28.8332,-90.8320,33.0,11111222 
WAVCIS,ioos:station:WAVCIS:CSI15:1,2009-09-05T05:00:00Z,28.8332,-90.8320,32.77,11111222 
WAVCIS,ioos:station:WAVCIS:CSI15:1,2009-09-05T06:00:00Z,28.8332,-90.8320,32.69,11111222 
WAVCIS,ioos:station:WAVCIS:CSI15:1,2009-09-05T07:00:00Z,28.8332,-90.8320,32.59,11111222 
WAVCIS,ioos:station:WAVCIS:CSI15:1,2009-09-05T08:00:00Z,28.8332,-90.8320,32.21,11111222 
WAVCIS,ioos:station:WAVCIS:CSI15:1,2009-09-05T09:00:00Z,28.8332,-90.8320,31.82,11111222 
WAVCIS,ioos:station:WAVCIS:CSI15:1,2009-09-05T10:00:00Z,28.8332,-90.8320,32.0,11111222 
WAVCIS,ioos:station:WAVCIS:CSI15:1,2009-09-05T11:00:00Z,28.8332,-90.8320,31.87,11111222 
WAVCIS,ioos:station:WAVCIS:CSI15:1,2009-09-05T12:00:00Z,28.8332,-90.8320,35.66,11111222 
WAVCIS,ioos:station:WAVCIS:CSI15:1,2009-09-05T13:00:00Z,28.8332,-90.8320,32.62,11111222 
WAVCIS,ioos:station:WAVCIS:CSI15:1,2009-09-05T14:00:00Z,28.8332,-90.8320,32.08,11111222 
WAVCIS,ioos:station:WAVCIS:CSI15:1,2009-09-05T15:00:00Z,28.8332,-90.8320,32.41,11111222 
WAVCIS,ioos:station:WAVCIS:CSI15:1,2009-09-05T16:00:00Z,28.8332,-90.8320,32.91,11111222 
WAVCIS,ioos:station:WAVCIS:CSI15:1,2009-09-05T17:00:00Z,28.8332,-90.8320,33.5,11111222 
WAVCIS,ioos:station:WAVCIS:CSI15:1,2009-09-05T18:00:00Z,28.8332,-90.8320,33.14,11111222 
WAVCIS,ioos:station:WAVCIS:CSI15:1,2009-09-05T19:00:00Z,28.8332,-90.8320,34.22,11111222 
WAVCIS,ioos:station:WAVCIS:CSI15:1,2009-09-05T20:00:00Z,28.8332,-90.8320,34.42,11111222 
WAVCIS,ioos:station:WAVCIS:CSI15:1,2009-09-05T21:00:00Z,28.8332,-90.8320,36.05,11111222 
WAVCIS,ioos:station:WAVCIS:CSI15:1,2009-09-05T22:00:00Z,28.8332,-90.8320,35.54,11111222 
WAVCIS,ioos:station:WAVCIS:CSI15:1,2009-09-05T23:00:00Z,28.8332,-90.8320,34.84,11111222 
WAVCIS,ioos:station:WAVCIS:CSI15:1,2009-09-06T00:00:00Z,28.8332,-90.8320,34.01,11111222 
WAVCIS,ioos:station:WAVCIS:CSI15:1,2009-09-06T01:00:00Z,28.8332,-90.8320,34.04,11111222 
WAVCIS,ioos:station:WAVCIS:CSI15:1,2009-09-06T02:00:00Z,28.8332,-90.8320,33.86,11111222 
WAVCIS,ioos:station:WAVCIS:CSI15:1,2009-09-06T03:00:00Z,28.8332,-90.8320,33.44,11111222 
WAVCIS,ioos:station:WAVCIS:CSI15:1,2009-09-06T04:00:00Z,28.8332,-90.8320,33.79,11111222 
WAVCIS,ioos:station:WAVCIS:CSI15:1,2009-09-06T05:00:00Z,28.8332,-90.8320,33.38,11111222 
WAVCIS,ioos:station:WAVCIS:CSI15:1,2009-09-06T06:00:00Z,28.8332,-90.8320,33.57,11111222 
WAVCIS,ioos:station:WAVCIS:CSI15:1,2009-09-06T07:00:00Z,28.8332,-90.8320,33.64,11111222 
WAVCIS,ioos:station:WAVCIS:CSI15:1,2009-09-06T08:00:00Z,28.8332,-90.8320,34.38,11111222 
WAVCIS,ioos:station:WAVCIS:CSI15:1,2009-09-06T09:00:00Z,28.8332,-90.8320,33.36,11111222 
WAVCIS,ioos:station:WAVCIS:CSI15:1,2009-09-06T10:00:00Z,28.8332,-90.8320,33.8,11111222 
WAVCIS,ioos:station:WAVCIS:CSI15:1,2009-09-06T11:00:00Z,28.8332,-90.8320,33.38,11111222 
WAVCIS,ioos:station:WAVCIS:CSI15:1,2009-09-06T12:00:00Z,28.8332,-90.8320,33.53,11111222 
WAVCIS,ioos:station:WAVCIS:CSI15:1,2009-09-06T13:00:00Z,28.8332,-90.8320,33.67,11111222 
WAVCIS,ioos:station:WAVCIS:CSI15:1,2009-09-06T14:00:00Z,28.8332,-90.8320,37.33,11111222 
WAVCIS,ioos:station:WAVCIS:CSI15:1,2009-09-06T15:00:00Z,28.8332,-90.8320,37.55,11111222 
WAVCIS,ioos:station:WAVCIS:CSI15:1,2009-09-06T16:00:00Z,28.8332,-90.8320,33.58,11111222 
WAVCIS,ioos:station:WAVCIS:CSI15:1,2009-09-06T17:00:00Z,28.8332,-90.8320,33.86,11111222 
WAVCIS,ioos:station:WAVCIS:CSI15:1,2009-09-06T18:00:00Z,28.8332,-90.8320,35.25,11111222 
WAVCIS,ioos:station:WAVCIS:CSI15:1,2009-09-06T19:00:00Z,28.8332,-90.8320,35.25,11111222 
WAVCIS,ioos:station:WAVCIS:CSI15:1,2009-09-06T20:00:00Z,28.8332,-90.8320,34.05,11111222 
WAVCIS,ioos:station:WAVCIS:CSI15:1,2009-09-06T21:00:00Z,28.8332,-90.8320,32.98,11111222 
WAVCIS,ioos:station:WAVCIS:CSI15:1,2009-09-06T22:00:00Z,28.8332,-90.8320,33.21,11111222 
WAVCIS,ioos:station:WAVCIS:CSI15:1,2009-09-06T23:00:00Z,28.8332,-90.8320,33.58,11111222 
WAVCIS,ioos:station:WAVCIS:CSI15:1,2009-09-07T00:00:00Z,28.8332,-90.8320,33.61,11111222 
WAVCIS,ioos:station:WAVCIS:CSI15:1,2009-09-07T01:00:00Z,28.8332,-90.8320,33.04,11111222 
WAVCIS,ioos:station:WAVCIS:CSI15:1,2009-09-07T02:00:00Z,28.8332,-90.8320,33.27,11111222 
WAVCIS,ioos:station:WAVCIS:CSI15:1,2009-09-07T03:00:00Z,28.8332,-90.8320,33.02,11111222 
WAVCIS,ioos:station:WAVCIS:CSI15:1,2009-09-07T04:00:00Z,28.8332,-90.8320,33.22,11111222 
WAVCIS,ioos:station:WAVCIS:CSI15:1,2009-09-07T05:00:00Z,28.8332,-90.8320,32.59,11111222 
WAVCIS,ioos:station:WAVCIS:CSI15:1,2009-09-07T06:00:00Z,28.8332,-90.8320,32.62,11111222 
WAVCIS,ioos:station:WAVCIS:CSI15:1,2009-09-07T07:00:00Z,28.8332,-90.8320,32.65,11111222 
WAVCIS,ioos:station:WAVCIS:CSI15:1,2009-09-07T08:00:00Z,28.8332,-90.8320,32.75,11111222 
WAVCIS,ioos:station:WAVCIS:CSI15:1,2009-09-07T09:00:00Z,28.8332,-90.8320,32.6,11111222 
WAVCIS,ioos:station:WAVCIS:CSI15:1,2009-09-07T10:00:00Z,28.8332,-90.8320,32.69,11111222 
WAVCIS,ioos:station:WAVCIS:CSI15:1,2009-09-07T11:00:00Z,28.8332,-90.8320,32.52,11111222 
WAVCIS,ioos:station:WAVCIS:CSI15:1,2009-09-07T12:00:00Z,28.8332,-90.8320,33.27,11111222 
WAVCIS,ioos:station:WAVCIS:CSI15:1,2009-09-07T13:00:00Z,28.8332,-90.8320,33.6,11111222 
WAVCIS,ioos:station:WAVCIS:CSI15:1,2009-09-07T14:00:00Z,28.8332,-90.8320,34.92,11111222 
WAVCIS,ioos:station:WAVCIS:CSI15:1,2009-09-07T15:00:00Z,28.8332,-90.8320,35.18,11111222 
WAVCIS,ioos:station:WAVCIS:CSI15:1,2009-09-07T16:00:00Z,28.8332,-90.8320,34.2,11111222 
WAVCIS,ioos:station:WAVCIS:CSI15:1,2009-09-07T17:00:00Z,28.8332,-90.8320,33.86,11111222 
WAVCIS,ioos:station:WAVCIS:CSI15:1,2009-09-07T18:00:00Z,28.8332,-90.8320,33.58,11111222 
WAVCIS,ioos:station:WAVCIS:CSI15:1,2009-09-07T19:00:00Z,28.8332,-90.8320,33.87,11111222 
WAVCIS,ioos:station:WAVCIS:CSI15:1,2009-09-07T20:00:00Z,28.8332,-90.8320,32.81,11111222 
WAVCIS,ioos:station:WAVCIS:CSI15:1,2009-09-07T21:00:00Z,28.8332,-90.8320,32.77,11111222 
WAVCIS,ioos:station:WAVCIS:CSI15:1,2009-09-07T22:00:00Z,28.8332,-90.8320,33.05,11111222 
WAVCIS,ioos:station:WAVCIS:CSI15:1,2009-09-07T23:00:00Z,28.8332,-90.8320,32.71,11111222 
WAVCIS,ioos:station:WAVCIS:CSI15:1,2009-09-08T00:00:00Z,28.8332,-90.8320,32.37,11111222 
WAVCIS,ioos:station:WAVCIS:CSI15:1,2009-09-08T01:00:00Z,28.8332,-90.8320,32.29,11111222 
WAVCIS,ioos:station:WAVCIS:CSI15:1,2009-09-08T02:00:00Z,28.8332,-90.8320,32.64,11111222 
WAVCIS,ioos:station:WAVCIS:CSI15:1,2009-09-08T03:00:00Z,28.8332,-90.8320,32.79,11111222 
WAVCIS,ioos:station:WAVCIS:CSI15:1,2009-09-08T04:00:00Z,28.8332,-90.8320,32.12,11111222 
WAVCIS,ioos:station:WAVCIS:CSI15:1,2009-09-08T05:00:00Z,28.8332,-90.8320,32.28,11111222 
WAVCIS,ioos:station:WAVCIS:CSI15:1,2009-09-08T06:00:00Z,28.8332,-90.8320,32.17,11111222 
WAVCIS,ioos:station:WAVCIS:CSI15:1,2009-09-08T07:00:00Z,28.8332,-90.8320,31.72,11111222 
WAVCIS,ioos:station:WAVCIS:CSI15:1,2009-09-08T08:00:00Z,28.8332,-90.8320,31.73,11111222 
WAVCIS,ioos:station:WAVCIS:CSI15:1,2009-09-08T09:00:00Z,28.8332,-90.8320,31.68,11111222 
WAVCIS,ioos:station:WAVCIS:CSI15:1,2009-09-08T10:00:00Z,28.8332,-90.8320,31.63,11111222 
WAVCIS,ioos:station:WAVCIS:CSI15:1,2009-09-08T11:00:00Z,28.8332,-90.8320,31.59,11111222 
WAVCIS,ioos:station:WAVCIS:CSI15:1,2009-09-08T12:00:00Z,28.8332,-90.8320,31.62,11111222 
WAVCIS,ioos:station:WAVCIS:CSI15:1,2009-09-08T13:00:00Z,28.8332,-90.8320,32.6,11111222 
WAVCIS,ioos:station:WAVCIS:CSI15:1,2009-09-08T14:00:00Z,28.8332,-90.8320,33.28,11111222 
WAVCIS,ioos:station:WAVCIS:CSI15:1,2009-09-08T15:00:00Z,28.8332,-90.8320,31.85,11111222 
WAVCIS,ioos:station:WAVCIS:CSI15:1,2009-09-08T16:00:00Z,28.8332,-90.8320,32.55,11111222 
WAVCIS,ioos:station:WAVCIS:CSI15:1,2009-09-08T17:00:00Z,28.8332,-90.8320,32.98,11111222 
WAVCIS,ioos:station:WAVCIS:CSI15:1,2009-09-08T18:00:00Z,28.8332,-90.8320,32.63,11111222 
WAVCIS,ioos:station:WAVCIS:CSI15:1,2009-09-08T19:00:00Z,28.8332,-90.8320,32.72,11111222 
WAVCIS,ioos:station:WAVCIS:CSI15:1,2009-09-08T20:00:00Z,28.8332,-90.8320,32.89,11111222 
WAVCIS,ioos:station:WAVCIS:CSI15:1,2009-09-08T21:00:00Z,28.8332,-90.8320,33.31,11111222 
WAVCIS,ioos:station:WAVCIS:CSI15:1,2009-09-08T22:00:00Z,28.8332,-90.8320,32.79,11111222 
WAVCIS,ioos:station:WAVCIS:CSI15:1,2009-09-08T23:00:00Z,28.8332,-90.8320,33.82,11111222 
WAVCIS,ioos:station:WAVCIS:CSI15:1,2009-09-09T00:00:00Z,28.8332,-90.8320,34.33,11111222 
WAVCIS,ioos:station:WAVCIS:CSI15:1,2009-09-09T01:00:00Z,28.8332,-90.8320,32.99,11111222 
WAVCIS,ioos:station:WAVCIS:CSI15:1,2009-09-09T02:00:00Z,28.8332,-90.8320,32.75,11111222 
WAVCIS,ioos:station:WAVCIS:CSI15:1,2009-09-09T03:00:00Z,28.8332,-90.8320,32.36,11111222 
WAVCIS,ioos:station:WAVCIS:CSI15:1,2009-09-09T04:00:00Z,28.8332,-90.8320,32.39,11111222 
WAVCIS,ioos:station:WAVCIS:CSI15:1,2009-09-09T05:00:00Z,28.8332,-90.8320,32.06,11111222 
WAVCIS,ioos:station:WAVCIS:CSI15:1,2009-09-09T06:00:00Z,28.8332,-90.8320,32.05,11111222 
WAVCIS,ioos:station:WAVCIS:CSI15:1,2009-09-09T07:00:00Z,28.8332,-90.8320,32.06,11111222 
WAVCIS,ioos:station:WAVCIS:CSI15:1,2009-09-09T08:00:00Z,28.8332,-90.8320,32.0,11111222 
WAVCIS,ioos:station:WAVCIS:CSI15:1,2009-09-09T09:00:00Z,28.8332,-90.8320,31.97,11111222 
WAVCIS,ioos:station:WAVCIS:CSI15:1,2009-09-09T10:00:00Z,28.8332,-90.8320,31.65,11111222 
WAVCIS,ioos:station:WAVCIS:CSI15:1,2009-09-09T11:00:00Z,28.8332,-90.8320,31.61,11111222 
WAVCIS,ioos:station:WAVCIS:CSI15:1,2009-09-09T12:00:00Z,28.8332,-90.8320,31.0,11111222 
WAVCIS,ioos:station:WAVCIS:CSI15:1,2009-09-09T13:00:00Z,28.8332,-90.8320,30.51,11111222 
WAVCIS,ioos:station:WAVCIS:CSI15:1,2009-09-09T14:00:00Z,28.8332,-90.8320,29.77,11111222 
WAVCIS,ioos:station:WAVCIS:CSI15:1,2009-09-09T15:00:00Z,28.8332,-90.8320,30.44,11111222 
WAVCIS,ioos:station:WAVCIS:CSI15:1,2009-09-09T16:00:00Z,28.8332,-90.8320,31.01,11111222 
WAVCIS,ioos:station:WAVCIS:CSI15:1,2009-09-09T17:00:00Z,28.8332,-90.8320,29.31,11111222 
WAVCIS,ioos:station:WAVCIS:CSI15:1,2009-09-09T18:00:00Z,28.8332,-90.8320,29.1,11111222 
WAVCIS,ioos:station:WAVCIS:CSI15:1,2009-09-09T19:00:00Z,28.8332,-90.8320,30.11,11111222 
WAVCIS,ioos:station:WAVCIS:CSI15:1,2009-09-09T20:00:00Z,28.8332,-90.8320,30.64,11111222 
WAVCIS,ioos:station:WAVCIS:CSI15:1,2009-09-09T21:00:00Z,28.8332,-90.8320,30.99,11111222 
WAVCIS,ioos:station:WAVCIS:CSI15:1,2009-09-09T22:00:00Z,28.8332,-90.8320,30.57,11111222 
WAVCIS,ioos:station:WAVCIS:CSI15:1,2009-09-09T23:00:00Z,28.8332,-90.8320,30.8,11111222 
WAVCIS,ioos:station:WAVCIS:CSI15:1,2009-09-10T00:00:00Z,28.8332,-90.8320,30.54,11111222 
WAVCIS,ioos:station:WAVCIS:CSI15:1,2009-09-10T01:00:00Z,28.8332,-90.8320,30.72,11111222 
WAVCIS,ioos:station:WAVCIS:CSI15:1,2009-09-10T02:00:00Z,28.8332,-90.8320,31.0,11111222 
WAVCIS,ioos:station:WAVCIS:CSI15:1,2009-09-10T03:00:00Z,28.8332,-90.8320,30.69,11111222 
WAVCIS,ioos:station:WAVCIS:CSI15:1,2009-09-10T04:00:00Z,28.8332,-90.8320,30.93,11111222 
WAVCIS,ioos:station:WAVCIS:CSI15:1,2009-09-10T05:00:00Z,28.8332,-90.8320,30.95,11111222 
WAVCIS,ioos:station:WAVCIS:CSI15:1,2009-09-10T06:00:00Z,28.8332,-90.8320,31.2,11111222 
WAVCIS,ioos:station:WAVCIS:CSI15:1,2009-09-10T07:00:00Z,28.8332,-90.8320,31.34,11111222 
WAVCIS,ioos:station:WAVCIS:CSI15:1,2009-09-10T08:00:00Z,28.8332,-90.8320,31.49,11111222 
WAVCIS,ioos:station:WAVCIS:CSI15:1,2009-09-10T09:00:00Z,28.8332,-90.8320,31.63,11111222 
WAVCIS,ioos:station:WAVCIS:CSI15:1,2009-09-10T10:00:00Z,28.8332,-90.8320,31.44,11111222 
WAVCIS,ioos:station:WAVCIS:CSI15:1,2009-09-10T11:00:00Z,28.8332,-90.8320,30.62,11111222 
WAVCIS,ioos:station:WAVCIS:CSI15:1,2009-09-10T12:00:00Z,28.8332,-90.8320,30.84,11111222 
WAVCIS,ioos:station:WAVCIS:CSI15:1,2009-09-10T13:00:00Z,28.8332,-90.8320,27.54,11111222 
WAVCIS,ioos:station:WAVCIS:CSI15:1,2009-09-10T14:00:00Z,28.8332,-90.8320,28.41,11111222 
WAVCIS,ioos:station:WAVCIS:CSI15:1,2009-09-10T15:00:00Z,28.8332,-90.8320,28.91,11111222 
WAVCIS,ioos:station:WAVCIS:CSI15:1,2009-09-10T16:00:00Z,28.8332,-90.8320,29.36,11111222 
WAVCIS,ioos:station:WAVCIS:CSI15:1,2009-09-10T17:00:00Z,28.8332,-90.8320,29.16,11111222 
WAVCIS,ioos:station:WAVCIS:CSI15:1,2009-09-10T18:00:00Z,28.8332,-90.8320,27.89,11111222 
WAVCIS,ioos:station:WAVCIS:CSI15:1,2009-09-10T19:00:00Z,28.8332,-90.8320,29.18,11111222 
WAVCIS,ioos:station:WAVCIS:CSI15:1,2009-09-10T20:00:00Z,28.8332,-90.8320,29.85,11111222 
WAVCIS,ioos:station:WAVCIS:CSI15:1,2009-09-10T21:00:00Z,28.8332,-90.8320,30.2,11111222 
WAVCIS,ioos:station:WAVCIS:CSI15:1,2009-09-10T22:00:00Z,28.8332,-90.8320,30.3,11111222 
WAVCIS,ioos:station:WAVCIS:CSI15:1,2009-09-10T23:00:00Z,28.8332,-90.8320,30.83,11111222 
WAVCIS,ioos:station:WAVCIS:CSI15:1,2009-09-11T00:00:00Z,28.8332,-90.8320,30.98,11111222 
WAVCIS,ioos:station:WAVCIS:CSI15:1,2009-09-11T01:00:00Z,28.8332,-90.8320,30.61,11111222 
WAVCIS,ioos:station:WAVCIS:CSI15:1,2009-09-11T02:00:00Z,28.8332,-90.8320,31.01,11111222 
WAVCIS,ioos:station:WAVCIS:CSI15:1,2009-09-11T03:00:00Z,28.8332,-90.8320,31.14,11111222 
WAVCIS,ioos:station:WAVCIS:CSI15:1,2009-09-11T04:00:00Z,28.8332,-90.8320,31.41,11111222 
WAVCIS,ioos:station:WAVCIS:CSI15:1,2009-09-11T05:00:00Z,28.8332,-90.8320,31.56,11111222 
WAVCIS,ioos:station:WAVCIS:CSI15:1,2009-09-11T06:00:00Z,28.8332,-90.8320,31.38,11111222 
WAVCIS,ioos:station:WAVCIS:CSI15:1,2009-09-11T07:00:00Z,28.8332,-90.8320,29.07,11111222 
WAVCIS,ioos:station:WAVCIS:CSI15:1,2009-09-11T08:00:00Z,28.8332,-90.8320,29.81,11111222 
WAVCIS,ioos:station:WAVCIS:CSI15:1,2009-09-11T09:00:00Z,28.8332,-90.8320,30.19,11111222 
WAVCIS,ioos:station:WAVCIS:CSI15:1,2009-09-11T10:00:00Z,28.8332,-90.8320,30.84,11111222 
WAVCIS,ioos:station:WAVCIS:CSI15:1,2009-09-11T11:00:00Z,28.8332,-90.8320,29.83,11111222 
WAVCIS,ioos:station:WAVCIS:CSI15:1,2009-09-11T12:00:00Z,28.8332,-90.8320,30.37,11111222 
WAVCIS,ioos:station:WAVCIS:CSI15:1,2009-09-11T13:00:00Z,28.8332,-90.8320,31.53,11111222 
WAVCIS,ioos:station:WAVCIS:CSI15:1,2009-09-11T14:00:00Z,28.8332,-90.8320,31.36,11111222 
WAVCIS,ioos:station:WAVCIS:CSI15:1,2009-09-11T15:00:00Z,28.8332,-90.8320,30.02,11111222 
WAVCIS,ioos:station:WAVCIS:CSI15:1,2009-09-11T16:00:00Z,28.8332,-90.8320,30.74,11111222 
WAVCIS,ioos:station:WAVCIS:CSI15:1,2009-09-11T17:00:00Z,28.8332,-90.8320,30.77,11111222 
WAVCIS,ioos:station:WAVCIS:CSI15:1,2009-09-11T18:00:00Z,28.8332,-90.8320,30.02,11111222 
WAVCIS,ioos:station:WAVCIS:CSI15:1,2009-09-11T19:00:00Z,28.8332,-90.8320,29.81,11111222 
WAVCIS,ioos:station:WAVCIS:CSI15:1,2009-09-11T20:00:00Z,28.8332,-90.8320,29.59,11111222 
WAVCIS,ioos:station:WAVCIS:CSI15:1,2009-09-11T21:00:00Z,28.8332,-90.8320,27.08,11111222 
WAVCIS,ioos:station:WAVCIS:CSI15:1,2009-09-11T22:00:00Z,28.8332,-90.8320,27.46,11111222 
WAVCIS,ioos:station:WAVCIS:CSI15:1,2009-09-11T23:00:00Z,28.8332,-90.8320,27.38,11111222 
WAVCIS,ioos:station:WAVCIS:CSI15:1,2009-09-12T00:00:00Z,28.8332,-90.8320,28.03,11111222 
WAVCIS,ioos:station:WAVCIS:CSI15:1,2009-09-12T01:00:00Z,28.8332,-90.8320,30.19,11111222 
WAVCIS,ioos:station:WAVCIS:CSI15:1,2009-09-12T02:00:00Z,28.8332,-90.8320,30.06,11111222 
WAVCIS,ioos:station:WAVCIS:CSI15:1,2009-09-12T03:00:00Z,28.8332,-90.8320,29.91,11111222 
WAVCIS,ioos:station:WAVCIS:CSI15:1,2009-09-12T04:00:00Z,28.8332,-90.8320,29.65,11111222 